FW5145 Weather Reports


Display with metric or nautical units.
time (UTC)temp
F
wind
direction
speed
MPH
gust
MPH
rain 1hr
in
rain 24hr
in
rain mn
in
humidity
%
barometer
mb
20260506155033 54 10 5.0 12.0 0.00 0.00 0.00 100 1013.2
20260506154606 54 360 3.0 10.0 0.00 0.00 0.00 100 1013.1
20260506154036 55 39 4.0 10.0 0.00 0.00 0.00 100 1013.2
20260506153532 55 5 4.0 10.0 0.00 0.00 0.00 100 1013.1
20260506153043 55 79 2.0 10.0 0.00 0.00 0.00 100 1013.2
20260506152532 55 22 3.0 10.0 0.00 0.00 0.00 100 1013.2
20260506152033 55 28 2.0 10.0 0.00 0.00 0.00 100 1013.1
20260506151543 55 360 3.0 10.0 0.00 0.00 0.00 100 1013.1
20260506151034 55 350 4.0 10.0 0.00 0.00 0.00 100 1013.0
20260506150535 55 336 3.0 9.0 0.00 0.00 0.00 100 1013.0
20260506150043 55 13 3.0 9.0 0.00 0.00 0.00 100 1013.2
20260506145536 55 40 3.0 9.0 0.00 0.00 0.00 100 1013.1
20260506145033 55 63 2.0 10.0 0.00 0.00 0.00 100 1013.2
20260506144553 55 61 3.0 10.0 0.00 0.00 0.00 100 1013.1
20260506144033 54 26 2.0 10.0 0.00 0.00 0.00 100 1013.0
20260506143533 54 94 3.0 10.0 0.00 0.00 0.00 100 1013.1
20260506143044 55 360 4.0 11.0 0.00 0.00 0.00 100 1013.0
20260506142533 55 0 3.0 11.0 0.00 0.00 0.00 100 1013.1
20260506142031 55 14 5.0 11.0 0.00 0.00 0.00 100 1013.1
20260506141545 55 48 4.0 10.0 0.00 0.00 0.00 100 1013.0
20260506141032 55 30 4.0 10.0 0.00 0.00 0.00 100 1013.0
20260506140532 55 30 3.0 10.0 0.00 0.00 0.00 100 1013.1
20260506140043 54 29 2.0 10.0 0.00 0.00 0.00 100 1013.1
20260506135531 55 5 3.0 10.0 0.00 0.00 0.00 100 1013.1
20260506135031 55 16 3.0 11.0 0.00 0.00 0.00 100 1013.1
20260506134543 54 36 4.0 11.0 0.00 0.00 0.00 100 1013.2
20260506134031 55 351 3.0 9.0 0.00 0.00 0.00 100 1013.0
20260506133531 55 15 3.0 8.0 0.00 0.00 0.00 100 1013.1
20260506133101 55 39 3.0 11.0 0.00 0.00 0.00 100 1013.2
20260506132532 55 88 4.0 11.0 0.00 0.00 0.00 100 1013.2
20260506132037 55 5 2.0 10.0 0.00 0.00 0.00 100 1013.1
20260506131545 54 13 4.0 11.0 0.00 0.00 0.00 100 1013.2
20260506131034 54 55 3.0 11.0 0.00 0.00 0.00 100 1013.1
20260506130533 55 19 5.0 11.0 0.00 0.00 0.00 100 1013.2
20260506130044 56 26 4.0 10.0 0.00 0.00 0.00 100 1013.2
20260506125531 56 351 3.0 12.0 0.00 0.00 0.00 100 1013.1
20260506125031 56 99 3.0 12.0 0.00 0.00 0.00 100 1013.0
20260506124543 56 360 1.0 11.0 0.00 0.00 0.00 100 1013.0
20260506124031 56 19 2.0 11.0 0.00 0.00 0.00 100 1013.0
20260506123532 56 11 3.0 11.0 0.00 0.00 0.00 100 1013.0
20260506123046 55 11 3.0 11.0 0.00 0.00 0.00 100 1013.0
20260506122534 56 352 4.0 11.0 0.00 0.00 0.00 100 1013.0
20260506122032 56 30 3.0 9.0 0.00 0.00 0.00 100 1013.0
20260506121548 55 208 4.0 13.0 0.00 0.00 0.00 100 1013.0
20260506121034 56 157 3.0 13.0 0.00 0.00 0.00 100 1013.0
20260506120532 56 12 2.0 10.0 0.00 0.00 0.00 100 1012.9
20260506120045 56 84 2.0 11.0 0.00 0.00 0.00 100 1013.0
20260506115531 56 28 4.0 11.0 0.00 0.00 0.00 100 1013.1
20260506115031 56 53 3.0 11.0 0.00 0.00 0.00 100 1013.0
20260506114548 55 21 2.0 11.0 0.00 0.00 0.00 100 1013.0
20260506114032 56 41 3.0 11.0 0.00 0.00 0.00 100 1013.1
20260506113531 55 28 4.0 11.0 0.00 0.00 0.00 100 1013.1
20260506113042 55 80 4.0 10.0 0.00 0.00 0.00 100 1013.0
20260506112531 55 347 3.0 12.0 0.00 0.00 0.00 100 1013.0
20260506112032 55 24 5.0 12.0 0.00 0.00 0.00 100 1013.0
20260506111543 55 338 4.0 11.0 0.00 0.00 0.00 100 1013.0
20260506111031 54 347 5.0 11.0 0.00 0.00 0.00 100 1013.0
20260506110532 54 5 4.0 11.0 0.00 0.00 0.00 100 1013.0
20260506110048 54 47 5.0 14.0 0.00 0.00 0.00 100 1013.0
20260506105532 54 5 4.0 14.0 0.00 0.00 0.00 100 1013.0
20260506105033 54 20 4.0 11.0 0.00 0.00 0.00 100 1013.0
20260506104608 54 62 4.0 16.0 0.00 0.00 0.00 100 1013.1
20260506104034 53 126 4.0 16.0 0.00 0.00 0.00 100 1013.1
20260506103533 53 352 5.0 14.0 0.00 0.00 0.00 100 1013.0
20260506103045 53 34 4.0 15.0 0.00 0.00 0.00 100 1013.0
20260506102535 53 18 6.0 15.0 0.00 0.00 0.00 100 1013.2
20260506102032 53 5 5.0 16.0 0.00 0.00 0.00 100 1013.1
20260506101548 53 352 4.0 16.0 0.00 0.00 0.00 100 1012.9
20260506101034 53 360 5.0 16.0 0.00 0.00 0.00 100 1012.9
20260506100531 54 107 6.0 13.0 0.00 0.00 0.00 100 1013.0
20260506100045 53 360 5.0 13.0 0.00 0.00 0.00 100 1013.0
20260506095531 53 352 3.0 15.0 0.00 0.00 0.00 100 1013.0
20260506095032 53 5 4.0 15.0 0.00 0.00 0.00 100 1013.0
20260506094540 53 360 7.0 15.0 0.00 0.00 0.00 100 1012.9
20260506094032 53 20 5.0 16.0 0.00 0.00 0.00 100 1013.0
20260506093533 53 34 6.0 16.0 0.00 0.00 0.00 100 1013.0
20260506093037 53 360 4.0 13.0 0.00 0.00 0.00 100 1013.0
20260506092532 53 360 4.0 16.0 0.00 0.00 0.00 100 1013.0
20260506092033 52 352 6.0 16.0 0.00 0.00 0.00 100 1013.0
20260506091536 52 28 3.0 12.0 0.00 0.00 0.00 100 1012.9
20260506091035 52 352 4.0 12.0 0.00 0.00 0.00 100 1012.9
20260506090533 52 25 5.0 11.0 0.00 0.00 0.00 100 1012.9
20260506090047 51 19 5.0 12.0 0.00 0.00 0.00 100 1012.8
20260506085532 51 360 4.0 13.0 0.00 0.00 0.00 100 1012.9
20260506085031 51 32 5.0 13.0 0.00 0.00 0.00 100 1012.9
20260506084544 51 14 6.0 13.0 0.00 0.00 0.00 100 1013.0
20260506084033 51 36 5.0 11.0 0.00 0.00 0.00 100 1012.9
20260506083532 50 44 4.0 12.0 0.00 0.00 0.00 100 1012.8
20260506083043 50 49 4.0 12.0 0.00 0.00 0.00 100 1012.9
20260506082533 49 52 3.0 12.0 0.00 0.00 0.00 100 1013.0
20260506082032 49 67 5.0 14.0 0.00 0.00 0.00 100 1012.9
20260506081537 49 62 4.0 14.0 0.00 0.00 0.00 100 1012.9
20260506081032 49 352 5.0 14.0 0.00 0.00 0.00 100 1012.9
20260506080533 49 32 3.0 11.0 0.00 0.00 0.00 100 1013.0
20260506073042 50 327 3.0 10.0 0.00 0.00 0.00 100 1012.8
20260506072531 49 349 4.0 11.0 0.00 0.00 0.00 100 1012.9
20260506072032 49 360 4.0 11.0 0.00 0.00 0.00 100 1012.8
20260506071540 49 352 3.0 10.0 0.00 0.00 0.00 100 1012.9
20260506071032 49 24 3.0 10.0 0.00 0.00 0.00 100 1012.8
20260506070532 49 18 2.0 8.0 0.00 0.00 0.00 100 1012.7
20260506062032 46 32 5.0 11.0 0.00 0.00 0.00 100 1012.6
20260506061543 46 18 4.0 10.0 0.00 0.00 0.00 100 1012.6
20260506061034 46 5 4.0 10.0 0.00 0.00 0.00 100 1012.6
20260506060535 46 33 3.0 9.0 0.00 0.00 0.00 100 1012.6
20260506051032 45 11 2.0 6.0 0.00 0.00 0.00 100 1012.3
20260506050533 45 15 2.0 6.0 0.00 0.00 0.00 100 1012.4
20260506045031 45 42 2.0 6.0 0.00 0.00 0.00 100 1012.3
20260506044545 46 26 2.0 6.0 0.00 0.00 0.00 100 1012.3
20260506044032 46 0 2.0 10.0 0.00 0.00 0.00 100 1012.2
20260506043532 46 11 3.0 10.0 0.00 0.00 0.00 100 1012.2
20260506043052 46 360 3.0 9.0 0.00 0.00 0.00 100 1012.2
20260506042532 46 45 3.0 9.0 0.00 0.00 0.00 100 1012.2
20260506042032 46 32 3.0 8.0 0.00 0.00 0.00 100 1012.2
20260506041547 47 28 1.0 5.0 0.00 0.00 0.00 100 1012.2
20260506041033 47 30 1.0 9.0 0.00 0.00 0.00 100 1012.1
20260506040531 47 350 2.0 9.0 0.00 0.00 0.00 100 1012.2
20260506040050 47 5 2.0 7.0 0.00 0.00 0.00 100 1012.1
20260506035531 47 32 1.0 5.0 0.00 0.00 0.00 100 1012.1
20260506035032 47 5 1.0 8.0 0.00 0.00 0.00 100 1012.1
20260506034543 47 30 2.0 8.0 0.00 0.00 0.00 100 1012.1
20260506034033 47 10 2.0 8.0 0.00 0.00 0.00 100 1012.1
20260506033533 47 15 2.0 6.0 0.00 0.00 0.00 100 1012.1
20260506033047 47 19 2.0 10.0 0.00 0.00 0.00 100 1012.2
20260506032534 47 32 1.0 10.0 0.00 0.00 0.00 100 1012.2
20260506032032 47 40 2.0 10.0 0.00 0.00 0.00 100 1012.1
20260506031546 47 307 2.0 7.0 0.00 0.00 0.00 100 1012.2
20260506031036 48 5 2.0 7.0 0.00 0.00 0.00 100 1012.1
20260506030532 48 53 2.0 7.0 0.00 0.00 0.00 100 1012.2
20260506030043 48 21 2.0 9.0 0.00 0.00 0.00 100 1012.2
20260506025532 48 48 3.0 9.0 0.00 0.00 0.00 100 1012.3
20260506025033 48 5 2.0 10.0 0.00 0.00 0.00 100 1012.3
20260506024546 48 13 2.0 10.0 0.00 0.00 0.00 100 1012.3
20260506024032 48 86 3.0 10.0 0.00 0.00 0.00 100 1012.4
20260506023533 48 348 2.0 10.0 0.00 0.00 0.00 100 1012.4
20260506023040 48 14 3.0 10.0 0.00 0.00 0.00 100 1012.4
20260506022533 48 19 4.0 9.0 0.00 0.00 0.00 100 1012.4
20260506022033 48 317 3.0 9.0 0.00 0.00 0.00 100 1012.4
20260506021556 48 24 2.0 9.0 0.00 0.00 0.00 100 1012.4
20260506021032 48 360 4.0 8.0 0.00 0.00 0.00 100 1012.5
20260506020534 48 24 3.0 8.0 0.00 0.00 0.00 100 1012.5
20260506020044 48 26 2.0 10.0 0.00 0.00 0.00 100 1012.4
20260506015532 48 345 4.0 12.0 0.00 0.00 0.00 100 1012.6
20260506015032 48 360 5.0 12.0 0.00 0.00 0.00 100 1012.6
20260506014543 49 5 2.0 9.0 0.00 0.00 0.00 100 1012.5
20260506014031 49 5 3.0 9.0 0.00 0.00 0.00 100 1012.6
20260506013532 49 5 4.0 11.0 0.00 0.00 0.00 100 1012.5
20260506013045 49 57 3.0 11.0 0.00 0.00 0.00 100 1012.4
20260506012532 49 30 3.0 9.0 0.00 0.00 0.00 100 1012.5
20260506012032 49 5 4.0 8.0 0.00 0.00 0.00 100 1012.5
20260506011546 49 36 2.0 6.0 0.00 0.00 0.00 100 1012.5
20260506011033 49 22 3.0 7.0 0.00 0.00 0.00 100 1012.5
20260506010533 49 52 3.0 9.0 0.00 0.00 0.00 100 1012.4
20260506010053 49 5 2.0 9.0 0.00 0.00 0.00 100 1012.5
20260506005532 49 78 4.0 9.0 0.00 0.00 0.00 100 1012.5
20260506005031 49 24 3.0 9.0 0.00 0.00 0.00 100 1012.4
20260506004544 49 22 3.0 10.0 0.00 0.00 0.00 100 1012.4
20260506004032 50 15 3.0 10.0 0.00 0.00 0.00 100 1012.5
20260506003532 50 17 3.0 10.0 0.00 0.00 0.00 100 1012.5
20260506003040 50 10 2.0 11.0 0.00 0.00 0.00 100 1012.5
20260506002532 50 27 2.0 11.0 0.00 0.00 0.00 100 1012.5
20260506002033 50 13 4.0 11.0 0.00 0.00 0.00 100 1012.5
20260506001541 50 11 4.0 12.0 0.00 0.00 0.00 100 1012.5
20260506001032 50 42 3.0 12.0 0.00 0.00 0.00 100 1012.5
20260506000532 50 5 4.0 12.0 0.00 0.00 0.00 100 1012.5
20260506000039 50 5 4.0 11.0 0.00 0.00 0.00 100 1012.5
20260505235532 51 360 4.0 9.0 0.00 0.00 0.00 100 1012.5
20260505235035 51 58 3.0 8.0 0.00 0.00 0.00 100 1012.5
20260505234604 51 5 1.0 6.0 0.00 0.00 0.00 100 1012.6
20260505234033 51 32 2.0 6.0 0.00 0.00 0.00 100 1012.6
20260505233532 51 40 1.0 6.0 0.00 0.00 0.00 100 1012.5
20260505233047 51 15 2.0 5.0 0.00 0.00 0.00 100 1012.6
20260505232535 51 30 2.0 5.0 0.00 0.00 0.00 100 1012.6
20260505232032 51 9 1.0 5.0 0.00 0.00 0.00 100 1012.6
20260505231542 51 17 1.0 5.0 0.00 0.00 0.00 100 1012.8
20260505231035 51 5 3.0 8.0 0.00 0.00 0.00 100 1012.8
20260505230534 51 15 3.0 8.0 0.00 0.00 0.00 100 1012.6
20260505230042 51 5 1.0 4.0 0.00 0.00 0.00 100 1012.7
20260505225535 51 32 1.0 4.0 0.00 0.00 0.00 100 1012.7
20260505225033 51 43 1.0 5.0 0.00 0.00 0.00 100 1012.8
20260505224544 51 41 2.0 7.0 0.00 0.00 0.00 100 1012.9
20260505224031 51 322 2.0 7.0 0.00 0.00 0.00 100 1012.8
20260505223532 51 21 2.0 7.0 0.00 0.00 0.00 100 1012.6
20260505223057 51 64 2.0 6.0 0.00 0.00 0.00 100 1012.8
20260505222532 51 49 2.0 9.0 0.00 0.00 0.00 100 1012.8
20260505222032 51 30 2.0 9.0 0.00 0.00 0.00 100 1012.8
20260505221543 51 14 2.0 8.0 0.00 0.00 0.00 100 1012.9
20260505221031 51 360 1.0 4.0 0.00 0.00 0.00 100 1012.8
20260505220532 52 30 1.0 5.0 0.00 0.00 0.00 100 1012.8
20260505220043 52 5 1.0 6.0 0.00 0.00 0.00 100 1012.7
20260505215534 52 39 2.0 6.0 0.00 0.00 0.00 100 1012.8
20260505215032 52 89 1.0 7.0 0.00 0.00 0.00 100 1012.8
20260505214552 52 32 2.0 8.0 0.00 0.00 0.00 100 1012.8
20260505214035 52 57 3.0 8.0 0.00 0.00 0.00 100 1012.8
20260505213533 52 17 1.0 7.0 0.00 0.00 0.00 100 1012.8
20260505213045 52 46 1.0 7.0 0.00 0.00 0.00 100 1012.8
20260505212533 52 33 1.0 5.0 0.00 0.00 0.00 100 1012.8
20260505212036 52 42 1.0 5.0 0.00 0.00 0.00 100 1012.9
20260505211549 52 28 2.0 5.0 0.00 0.00 0.00 100 1012.9
20260505211034 52 23 2.0 5.0 0.00 0.00 0.00 100 1012.8
20260505210533 53 58 2.0 5.0 0.00 0.00 0.00 100 1012.7
20260505210042 53 96 1.0 6.0 0.00 0.00 0.00 100 1012.8
20260505205532 53 44 2.0 7.0 0.00 0.00 0.00 100 1012.8
20260505205032 53 36 1.0 9.0 0.00 0.00 0.00 100 1012.7
20260505204542 53 45 2.0 9.0 0.00 0.00 0.00 100 1012.7
20260505204033 53 42 3.0 9.0 0.00 0.00 0.00 100 1012.7
20260505203532 53 37 1.0 5.0 0.00 0.00 0.00 100 1012.7
20260505203051 53 49 1.0 5.0 0.00 0.00 0.00 100 1012.7
20260505202532 53 57 2.0 5.0 0.00 0.00 0.00 100 1012.6
20260505202031 54 11 2.0 5.0 0.00 0.00 0.00 100 1012.4
20260505201545 54 62 1.0 6.0 0.00 0.00 0.00 100 1012.4
20260505201032 54 46 1.0 6.0 0.00 0.00 0.00 100 1012.3
20260505200534 54 352 1.0 5.0 0.00 0.00 0.00 100 1012.4
20260505200045 54 51 2.0 6.0 0.00 0.00 0.00 100 1012.3
20260505195534 54 34 1.0 6.0 0.00 0.00 0.00 100 1012.3
20260505195033 54 36 1.0 9.0 0.00 0.00 0.00 100 1012.2
20260505194545 54 61 2.0 9.0 0.00 0.00 0.00 100 1012.1
20260505194034 55 24 2.0 5.0 0.00 0.00 0.00 100 1012.0
20260505193532 55 32 2.0 5.0 0.00 0.00 0.00 100 1012.0
20260505193042 55 82 1.0 4.0 0.00 0.00 0.00 100 1011.8
20260505192535 55 53 1.0 4.0 0.00 0.00 0.00 100 1011.8
20260505192032 55 67 1.0 5.0 0.00 0.00 0.00 100 1011.8
20260505191546 56 34 1.0 5.0 0.00 0.00 0.00 100 1011.6
20260505191032 56 57 2.0 5.0 0.00 0.00 0.00 100 1011.6
20260505190532 56 58 1.0 3.0 0.00 0.00 0.00 100 1011.6
20260505190049 56 67 1.0 3.0 0.00 0.00 0.00 100 1011.7
20260505185534 56 11 0.0 4.0 0.00 0.00 0.00 100 1011.7
20260505185032 56 0 1.0 4.0 0.00 0.00 0.00 100 1011.6
20260505184546 56 55 1.0 4.0 0.00 0.00 0.00 100 1011.5
20260505184032 56 55 2.0 4.0 0.00 0.00 0.00 100 1011.4
20260505183534 56 53 1.0 6.0 0.00 0.00 0.00 100 1011.5
20260505183047 56 90 1.0 6.0 0.00 0.00 0.00 100 1011.5
20260505182535 56 0 1.0 6.0 0.00 0.00 0.00 100 1011.6
20260505182031 57 30 2.0 5.0 0.00 0.00 0.00 100 1011.5
20260505181549 57 0 1.0 4.0 0.00 0.00 0.00 100 1011.5
20260505181037 57 81 1.0 5.0 0.00 0.00 0.00 100 1011.6
20260505180536 57 78 2.0 5.0 0.00 0.00 0.00 100 1011.7
20260505180046 57 19 1.0 5.0 0.00 0.00 0.00 100 1011.7
20260505175532 57 66 2.0 5.0 0.00 0.00 0.00 100 1011.7
20260505175033 57 18 1.0 7.0 0.00 0.00 0.00 100 1011.7
20260505174537 57 0 1.0 7.0 0.00 0.00 0.00 100 1011.6
20260505174032 58 27 2.0 6.0 0.00 0.00 0.00 100 1011.6
20260505173533 58 58 2.0 5.0 0.00 0.00 0.00 100 1011.7
20260505173042 58 55 1.0 5.0 0.00 0.00 0.00 100 1011.7
20260505172531 58 69 1.0 5.0 0.00 0.00 0.00 100 1011.6
20260505172033 58 13 2.0 9.0 0.00 0.00 0.00 100 1011.6
20260505171543 58 55 2.0 9.0 0.00 0.00 0.00 100 1011.6
20260505171032 58 36 2.0 9.0 0.00 0.00 0.00 100 1011.7
20260505170532 58 59 2.0 9.0 0.00 0.00 0.00 100 1011.6
20260505170043 59 13 2.0 10.0 0.00 0.00 0.00 100 1011.7
20260505165532 59 22 1.0 10.0 0.00 0.00 0.00 100 1011.7
20260505165034 59 49 2.0 7.0 0.00 0.00 0.00 100 1011.6
20260505164542 59 26 1.0 7.0 0.00 0.00 0.00 100 1011.5
20260505164033 59 11 2.0 7.0 0.00 0.00 0.00 100 1011.6
20260505163532 59 5 2.0 6.0 0.00 0.00 0.00 100 1011.4
20260505163044 59 30 1.0 8.0 0.00 0.00 0.00 100 1011.5
20260505162536 59 34 2.0 8.0 0.00 0.00 0.00 100 1011.7
20260505162032 59 46 3.0 7.0 0.00 0.00 0.00 100 1011.6
20260505161544 59 5 1.0 6.0 0.00 0.00 0.00 100 1011.6
20260505161036 59 22 2.0 6.0 0.00 0.00 0.00 100 1011.6
20260505160532 59 51 2.0 6.0 0.00 0.00 0.00 100 1011.6